Regional Weather Roundup
Issued by NWS Green Bay, WI

Home | Current Version | Previous Version | Graphics & Text | Print | Product List | Glossary Off
Versions: 1 2 3 4 5 6 7 8 9 10 11 12 13 14 15 16 17 18 19 20 21 22 23 24 25 26 27 28 29 30 31 32 33 34 35 36 37 38 39 40 41 42 43 44 45 46 47 48 49 50

460
ASUS43 KGRB 292200
RWRGRB

NORTH-CENTRAL AND NORTHEAST WISCONSIN REGIONAL WEATHER ROUNDUP
NATIONAL WEATHER SERVICE GREEN BAY WI
500 PM CDT SAT APR 29 2017

WIZ005-009-010>012-018-019-292300-
NORTH CENTRAL WISCONSIN

CITY           SKY/WX    TMP DP  RH WIND       PRES   REMARKS
IRONWOOD       CLOUDY    40  23  50 N7G16     30.37S
MANITOWISH WTR NOT AVBL
ARBOR VITAE    NOT AVBL
EAGLE RIVER    NOT AVBL
LAND O LAKES   NOT AVBL
RHINELANDER    PTSUNNY   50  25  37 NE8       30.29S
PHILLIPS       NOT AVBL
ANTIGO         NOT AVBL
TOMAHAWK       NOT AVBL
MERRILL        NOT AVBL
$$

WIZ013-073-292300-
NORTHEAST WISCONSIN

CITY           SKY/WX    TMP DP  RH WIND       PRES   REMARKS
IRON MOUNTAIN  CLOUDY    50  17  27 NE9       30.29S
MARINETTE      CLOUDY    46  28  49 E12       30.30S
$$

WIZ017-030-035>037-045-292300-
CENTRAL WISCONSIN

CITY           SKY/WX    TMP DP  RH WIND       PRES   REMARKS
MEDFORD        NOT AVBL
WAUSAU         CLOUDY    51  27  39 E10       30.23F
MOSINEE        NOT AVBL
MARSHFIELD     PTSUNNY   50  27  40 NE10      30.22F
WISC RAPIDS    CLOUDY    49  30  48 E8        30.23F
STEVENS POINT  NOT AVBL
WAUPACA        NOT AVBL
SHAWANO        NOT AVBL
CLINTONVILLE   NOT AVBL
WAUTOMA        CLOUDY    46  29  51 NE13G20   30.23F
$$

WIZ038-039-048-051-292300-
FOX VALLEY

CITY           SKY/WX    TMP DP  RH WIND       PRES   REMARKS
NWS GREEN BAY  CLOUDY    47  33  58 NE21G28   30.24F
APPLETON       CLOUDY    45  25  45 NE18G25   30.21F
OSHKOSH        CLOUDY    45  31  58 NE16G25   30.22F
FOND DU LAC    CLOUDY    44  27  51 NE18G29   30.22R
$$

WIZ022-050-052-292300-
EAST CENTRAL WISCONSIN

CITY           SKY/WX    TMP DP  RH WIND       PRES   REMARKS
EPHRAIM        NOT AVBL
WASHINGTON ISL NOT AVBL
STURGEON BAY   CLOUDY    45  28  51 NE8       30.29S
MANITOWOC      NOT AVBL
SHEBOYGAN      CLOUDY    43  34  70 NE21G32   30.21F
$$

LMZ563-521-522-541>543-292300-
LAKESHORE

STATION/POSITION TIME  TEMP    WIND        PRES    VSBY  WAVE
                       AIR SEA DIR/SP/G                  HT/PER
                 (UTC) (F)     (DEG/KT/KT) (MB)    (MI)  (FT/S)
SHEBOYGAN LKSHOR 2100   38      10/ 29/ 31 1023.8F
KEWAUNEE LKSHORE 2130   41      30/  9/ 12 1025.1F
NORTHPORT PIER   2140   44     310/  3/  5 1025.7F
N MID LAKE BUOY  2050   38 38  260/  2/  4 1027.4F         1
SISTER BAY LKSHO 2106   48      20/ 11/ 15   N/A
CHAMBERS ISLAND  2140   45      40/ 10/ 12 1025.4F
MENOMINEE LKSHOR 2130   45      60/  9/ 10 1024.9R
$$




USA.gov is the U.S. government's official web portal to all federal, state and local government web resources and services.